Terug naar catalogus

COSMOS 2251 DEB

ActiefLEO
NORAD 35789·DEBRIS·🇷🇺 Russia

Gelanceerd Jun 16, 1993 vanaf Plesetsk Cosmodrome

Loading…

Volgende Passages (komende 24 uur)

TLE

VerouderendSource: Space-Track

Epoch: Sep 11, 2026, 02:51 UTC

1 35789U 93036ASK 26254.11897509  .00000149  00000-0  59483-4 0  9999
2 35789  74.0385 144.3370 0048046 180.0475 180.0682 14.36145030651374

Volg COSMOS 2251 DEB in realtime met AllMySat

Download on the App Store